Showing default

LEMUR 2 KARENDARRELL, 64841

Orbit data source: Space-Track

LEMUR 2 KARENDARRELL, 64841 is an American payload satellite in SSO that was launched on Mon, 23 Jun 2025 UTC via an FALCON 9 launch vehicle from the Air Force Western Test Range (AFWTR). Payload-class satellites include a variety of spacecraft equipped with specific instruments for various scientific and technological missions. These include communications satellites like Starlink; space stations such as the ISS; scientific satellites like the Hubble; Earth observation satellites from companies like Planet Labs, Umbra, and HawkEye 360; GPS; miniature CubeSats for education and research; and military/defense satellites.

Loading next visibility...
Identifier
64841, 2025-135BU
Orbit
SSO
Country
Flag of USUS
Related business
Manufacturer
Spire/Glasgow
Mission
Operational Commercial Com/MetRO
Bus & Motor
CUBESAT 4U, Unknown motor
Mass
5 kg wet, 5 kg dry
Launch date (UTC)
2025-06-23 (5 months ago)
Launch vehicle
FALCON 9
Launch site
Air Force Western Test Range (AFWTR)
Object type
Payload
Rocket body
Debris
Shape & HBR
Box, 0.2 m
Radar Cross Section
0.045 m², Small (<0.1 m²)

Expand to show TLE details & history
Last TLE update: 10 hours ago

TLE from 10 hours ago
0 LEMUR 2 KARENDARRELL
1 64841U 25135BU  25340.85601167  .00018251  00000-0  16236-2 0  9994
2 64841  97.7591  93.0450 0008821 141.6489 218.5361 14.96100393 25218
Epoch: 2025-12-06T20:32Z
TLE epoch observation values (Epoch: 2025-12-06T20:32:39.408Z)
Latitude
0.00001°
Longitude
69.00305°
Altitude
586.81 km
Speed
7.564 km/s
True Right ascension
06h 12m 10s
True Declination
0° 00' 00"
Sunlit
Object was in full shadow at epoch
Visualization orbit readout
Latitude
Unknown
Longitude
Unknown
Altitude
Unknown
Speed
Unknown
Apparent Right ascension
Unknown
Apparent Declination
Unknown
Sunlit
N/A
Visualization observer readout
Local Sidereal Time
04:09:58
Azimuth
Unknown
Elevation
Unknown
Doppler factor
Unknown
Orbital elements
Apogee altitude
582.107 km
Perigee altitude
569.838 km
Semi-major axis
6,954.109 km
Eccentricity
0.00088
Inclination
97.7591°
RAAN
93.045°
Arg. of periapsis
141.6489°
True anomaly
218.47318°
Mean anomaly
218.5361°
Eccentric anomaly
218.50463°
Mean motion
3.74266 °/min
Orbital period
96.19 mins
BSTAR
0.0016236
Loading maneuver chart data...
Computing Atmospheric mass density...
Loading historical data...
Loading historical data...
Loading historical data...
Loading historical data...
Loading historical data...
Loading historical data...
Loading historical data...

Documentation

Showing up to 5 results
|